Flag for Switzerland Weather past 2 weeks in Bellinzona, Ticino, Switzerland

Now
52 °F

Cool.


Feels Like: 52 °F
Forecast: 47 / 65 °F
Wind: 1 mph from Northwest

Location: Locarno-Magadino

Current Time: Apr 25, 2015 at 11:51:08 PM

Latest Report: Apr 25, 2015 at 10:00 PM


Visibility: N/A

Pressure: 30.05 "Hg

Humidity: 96%

Dew point: 51 °F

Location of BellinzonaLocation

Historic Weather in Bellinzona — Graph

°F

Bellinzona temperature yesterday

Maximum temperature yesterday: 73 °F (at 3:00 PM)
Minimum temperature yesterday: 44 °F (at 5:00 AM)
Average temperature yesterday: 61 °F

Past Weeks' High & Low Weather Summary

 TemperatureHumidityPressure
High79 °F (Apr 22, 4:00 PM)97% (Apr 18, 3:00 AM)30.42 "Hg (Apr 18, 3:00 AM)
Low36 °F (Apr 20, 6:00 AM)12% (Apr 14, 3:00 PM)29.81 "Hg (Apr 18, 5:00 PM)
Average59 °F55%30.12 "Hg
* Reported Apr 10 10:00 PM — Apr 25 10:00 PM, Bellinzona, Weather by CustomWeather, © 2015

Note: Actual official high and low records may vary slightly from our data, if they occured in-between our weather recording intervals... More about our weather records

Advertising

Bellinzona weather history for previous 24 hours

 ConditionsComfort  
Time TempWeatherWind HumidityBarometerVisibility
10:00 PM
Sat, Apr 25
52 °FCool.1 mph96%30.05 "HgN/A
9:00 PM53 °FCool.1 mph95%30.04 "HgN/A
8:00 PM53 °FCool.2 mph89%30.03 "HgN/A
7:00 PM54 °FCool.1 mph91%30.04 "HgN/A
6:00 PM54 °FCool.No wind92%30.05 "HgN/A
5:00 PM54 °FCool.No wind88%30.04 "HgN/A
4:00 PM54 °FCool.1 mph89%30.05 "HgN/A
3:00 PM54 °FCool.7 mph87%30.06 "HgN/A
2:00 PM54 °FCool.3 mph91%30.07 "HgN/A
1:00 PM54 °FCool.3 mph94%30.07 "HgN/A
12:00 PM54 °FCool.5 mph93%30.07 "HgN/A
11:00 AM54 °FCool.7 mph92%30.07 "HgN/A
10:00 AM54 °FCool.6 mph90%30.07 "HgN/A
9:00 AM54 °FCool.3 mph87%30.06 "HgN/A
8:00 AM55 °FCool.8 mph85%30.06 "HgN/A
7:00 AM60 °FRefreshingly cool.12 mph60%30.02 "HgN/A
6:00 AM61 °FRefreshingly cool.7 mph56%30.01 "HgN/A
5:00 AM62 °FRefreshingly cool.6 mph54%30.01 "HgN/A
4:00 AM63 °FMild.5 mph56%30.00 "HgN/A
3:00 AM63 °FMild.3 mph55%30.01 "HgN/A
2:00 AM64 °FMild.6 mph56%30.01 "HgN/A
1:00 AM65 °FMild.8 mph51%30.00 "HgN/A
12:00 AM65 °FMild.12 mph50%30.00 "HgN/A
11:00 PM
Fri, Apr 24
66 °FMild.14 mph50%29.98 "HgN/A
Weather by CustomWeather, © 2015

See weather overviewHow to use our weather pages